Regional Weather Roundup
Issued by NWS

Home | Current Version | Previous Version | Text Only | Print | Product List | Glossary On
Versions: 1 2 3 4 5 6 7 8 9 10 11 12 13 14 15 16 17 18 19 20 21 22 23 24 25 26 27 28 29 30 31 32 33 34 35 36 37 38 39 40 41 42 43 44 45 46 47 48 49 50
199
ASUS44 KJAN 242103
RWRMS

MISSISSIPPI HOURLY WEATHER ROUNDUP
NATIONAL WEATHER SERVICE JACKSON MS
400 PM CDT THU APR 24 2014

NOTE: "FAIR: INDICATES FEW OR NO CLOUDS BELOW 12,000 FEET WITH NO
SIGNIFICANT WEATHER AND/OR OBSTRUCTIONS TO VISIBILITY.

MSZ001>002-007>008-010>013-018>021-025>028-034>036-242200-
NORTHWEST MISSISSIPPI

CITY           SKY/WX    TMP DP  RH WIND       PRES   REMARKS
CLARKSDALE       N/A     82  55  39 S15G23    29.78F
CLEVELAND      CLOUDY    81  60  49 S22G28    29.77F
GREENWOOD      MOSUNNY   84  57  39 S17       29.79F
GREENVILLE     MOSUNNY   81  62  52 S17       29.75F
GRENADA        FAIR      81  55  41 S8G17     29.80F
OLIVE BRANCH   PTSUNNY   79  55  44 S14G22    29.78F
OXFORD         FAIR      79  54  41 SW13G18   29.82F
TUNICA         CLEAR     81  54  39 S16G25    29.76F
$$

MSZ003>006-009-014>017-022>024-029>033-037>039-242200-
NORTHEAST MISSISSIPPI

CITY           SKY/WX    TMP DP  RH WIND       PRES   REMARKS
BELMONT        FAIR      80  53  38 S10G21    29.84F
COLUMBUS AFB   CLOUDY    83  55  38 S10       29.84F
CORINTH        FAIR      81  50  34 S9        29.81F
GOLDN TRIANGLE PTSUNNY   81  55  41 S12G18    29.88F
STARKVILLE     FAIR      81  54  39 S8        29.84F
TUPELO         PTSUNNY   81  53  37 SW15G22   29.81F
$$

MSZ040-058-242200-
CENTRAL MISSISSIPPI

CITY           SKY/WX    TMP DP  RH WIND       PRES   REMARKS
JACKSON INTL   PTSUNNY   84  57  39 S14G20    29.84F
JACKSON HAWKNS PTSUNNY   83  56  39 S12G21    29.84F
MERIDIAN KEY   PTSUNNY   81  56  42 S15G22    29.88F
MERIDIAN NAS   PTSUNNY   83  56  39 SW12G18   29.88F
RAYMOND        FAIR      82  77  83 S14G22    29.85F HX  91
VICKSBURG      PTSUNNY   82  62  50 S14G25    29.81
$$

MSZ059>079-242200-
SOUTH MISSISSIPPI

CITY           SKY/WX    TMP DP  RH WIND       PRES   REMARKS
BROOKHAVEN     FAIR      81  63  54 S10       29.89F
HATTIESBURG    MOSUNNY   83  59  44 S9        29.90F
MCCOMB         PTSUNNY   82  62  50 S10       29.88F
NATCHEZ        MOSUNNY   81  64  57 S9G18     29.84F
PINE BELT      MOSUNNY   82  57  42 SW8       29.91F
$$

MSZ080>082-242200-
COASTAL MISSISSIPPI

CITY           SKY/WX    TMP DP  RH WIND       PRES   REMARKS
BAY ST LOUIS   MOSUNNY   81  61  50 S12       29.93F
BILOXI         PTSUNNY   76  65  69 S10       29.94F
PASCAGOULA     MOSUNNY   76  65  68 SW9       29.94F
GULFPORT       MOSUNNY   78  64  61 S12       29.93F
$$



USA.gov is the U.S. government's official web portal to all federal, state and local government web resources and services.